sat.trackr.live / text

‹ back to catalog

SDO

NORAD 36395 · 2010-005A

PAYLOAD ACTIVE UNKNOWN

§ Identity

Operator
Country
US
Launch date
2010-02-11
Launch site
AFETR
Launch vehicle
Mass (kg)
RCS (m²)
5.17

Purposes: comms, science

External: N2YO · Heavens-Above · Gunter

§ Orbital elements

Epoch: 2026-09-10T01:32:28.538016Z

Period
1,436.06 min
Inclination
34.8263°
Eccentricity
0.0001828
Mean motion
1.00274696 rev/d
Perigee alt
35,778.1 km
Apogee alt
35,793.5 km
Semi-major
42,163.9 km
B*
0.0000e+0
RAAN
85.0499°
Arg perigee
71.6481°
Mean anomaly
113.8860°
Rev number
6,091

§ Raw data

SDO1 36395U 10005A   26253.06421919 -.00000071  00000+0  00000+0 0  99992 36395  34.8263  85.0499 0001828  71.6481 113.8860  1.00274696 60913

JSON: /api/v1/satellites/36395 · /tle

For live sub-satellite position, see the globe view (requires WebGL).

§ Visibility from observer

Set your observer location to see the next 7 days of passes ≥ 10°. The values pass through the URL so the page stays shareable.

No JS? Fill the form by hand. The geolocation button needs JavaScript.